Location: Navarre
(52.9016°N, 113.4144°W)
Time: 00:35:18
(UTC+00:00)

Tiangong - Pass Details

Date: 10 June 2023
Orbit: 373 x 384 km, 41.5° (Epoch: 25 September)

Event Time Altitude Azimuth Distance (km) Brightness Sun altitude
Exits shadow 08:10:18 - 117° (ESE) 2,219 1.5 -13.7°
Enters shadow 09:12:53 -54° 268° (W) 10,719 5.1 -11.1°
Maximum altitude 09:42:08 10° 179° (S) 1,341 0.1 -9.1°
